timestamp,wind_dir_avg,wind_spd_max_dir,wind_spd_avg,wind_spd_gust,battery_voltage,lat,long
2018-01-28 00:00:00+00:00,234.0,240.0,7.11,8.94,,47.59359,-54.27349
2018-01-28 00:10:00+00:00,237.0,237.0,7.14,8.9,,47.59359,-54.27349
2018-01-28 00:20:00+00:00,235.0,242.0,8.45,10.43,,47.59359,-54.27349
2018-01-28 00:30:00+00:00,241.0,250.0,6.75,7.77,,47.59359,-54.27349
2018-01-28 00:40:00+00:00,235.0,238.0,9.49,14.31,,47.59359,-54.27349
2018-01-28 00:50:00+00:00,252.0,256.0,9.66,14.57,,47.59359,-54.27349
2018-01-28 01:00:00+00:00,243.0,255.0,9.47,13.44,,47.59359,-54.27349
2018-01-28 01:10:00+00:00,241.0,246.0,9.44,12.79,,47.59359,-54.27349
2018-01-28 01:20:00+00:00,247.0,259.0,8.44,12.03,,47.59359,-54.27349
2018-01-28 01:30:00+00:00,243.0,246.0,8.73,11.78,,47.59359,-54.27349
2018-01-28 01:40:00+00:00,246.0,253.0,7.59,8.6,,47.59359,-54.27349
2018-01-28 01:50:00+00:00,251.0,253.0,9.3,14.11,,47.59359,-54.27349
2018-01-28 02:00:00+00:00,249.0,254.0,7.99,9.08,,47.59359,-54.27349
2018-01-28 02:10:00+00:00,241.0,252.0,11.34,16.01,,47.59359,-54.27349
2018-01-28 02:20:00+00:00,236.0,240.0,12.88,16.12,,47.59359,-54.27349
2018-01-28 02:30:00+00:00,242.0,241.0,15.91,17.6,,47.59359,-54.27349
2018-01-28 02:40:00+00:00,244.0,241.0,13.13,17.55,,47.59359,-54.27349
2018-01-28 02:50:00+00:00,241.0,241.0,15.09,17.56,,47.59359,-54.27349
2018-01-28 03:00:00+00:00,241.0,238.0,15.07,18.03,,47.59359,-54.27349
2018-01-28 03:10:00+00:00,243.0,241.0,16.22,18.3,,47.59359,-54.27349
2018-01-28 03:20:00+00:00,242.0,241.0,16.58,18.6,,47.59359,-54.27349
2018-01-28 03:30:00+00:00,243.0,238.0,16.04,19.26,,47.59359,-54.27349
2018-01-28 03:40:00+00:00,240.0,241.0,17.11,18.11,,47.59359,-54.27349
2018-01-28 03:50:00+00:00,240.0,238.0,16.5,18.99,,47.59359,-54.27349
2018-01-28 04:00:00+00:00,236.0,239.0,14.63,18.34,,47.59359,-54.27349
2018-01-28 04:10:00+00:00,243.0,236.0,16.06,19.06,,47.59359,-54.27349
2018-01-28 04:20:00+00:00,242.0,237.0,16.52,18.37,,47.59359,-54.27349
2018-01-28 04:30:00+00:00,240.0,233.0,17.32,19.1,,47.59359,-54.27349
2018-01-28 04:40:00+00:00,240.0,237.0,17.45,19.17,,47.59359,-54.27349
2018-01-28 04:50:00+00:00,240.0,240.0,16.7,18.98,,47.59359,-54.27349
2018-01-28 05:00:00+00:00,242.0,241.0,16.58,19.4,,47.59359,-54.27349
2018-01-28 05:10:00+00:00,236.0,236.0,18.03,19.75,,47.59359,-54.27349
2018-01-28 05:20:00+00:00,239.0,231.0,14.82,18.63,,47.59359,-54.27349
2018-01-28 05:30:00+00:00,241.0,239.0,17.03,18.52,,47.59359,-54.27349
2018-01-28 05:40:00+00:00,235.0,231.0,17.66,19.43,,47.59359,-54.27349
2018-01-28 05:50:00+00:00,233.0,230.0,18.61,19.91,,47.59359,-54.27349
2018-01-28 06:00:00+00:00,234.0,235.0,17.77,19.86,,47.59359,-54.27349
2018-01-28 06:10:00+00:00,235.0,231.0,16.62,19.71,,47.59359,-54.27349
2018-01-28 06:20:00+00:00,238.0,237.0,17.56,18.96,,47.59359,-54.27349
2018-01-28 06:30:00+00:00,235.0,230.0,17.9,19.7,,47.59359,-54.27349
2018-01-28 06:40:00+00:00,237.0,238.0,16.79,19.04,,47.59359,-54.27349
2018-01-28 06:50:00+00:00,235.0,233.0,16.16,20.0,,47.59359,-54.27349
2018-01-28 07:00:00+00:00,235.0,229.0,16.5,19.77,,47.59359,-54.27349
2018-01-28 07:10:00+00:00,232.0,232.0,17.98,19.64,,47.59359,-54.27349
2018-01-28 07:20:00+00:00,234.0,228.0,17.43,19.5,,47.59359,-54.27349
2018-01-28 07:30:00+00:00,232.0,233.0,15.7,18.06,,47.59359,-54.27349
2018-01-28 07:40:00+00:00,231.0,241.0,14.56,17.32,,47.59359,-54.27349
2018-01-28 07:50:00+00:00,229.0,237.0,14.96,18.43,,47.59359,-54.27349
2018-01-28 08:00:00+00:00,231.0,228.0,17.07,19.56,,47.59359,-54.27349
2018-01-28 08:10:00+00:00,230.0,226.0,16.6,19.21,,47.59359,-54.27349
2018-01-28 08:20:00+00:00,229.0,232.0,14.65,17.8,,47.59359,-54.27349
2018-01-28 08:30:00+00:00,226.0,223.0,14.52,17.55,,47.59359,-54.27349
2018-01-28 08:40:00+00:00,230.0,228.0,16.06,17.87,,47.59359,-54.27349
2018-01-28 08:50:00+00:00,226.0,227.0,15.54,17.95,,47.59359,-54.27349
2018-01-28 09:00:00+00:00,228.0,231.0,15.06,17.53,,47.59359,-54.27349
2018-01-28 09:10:00+00:00,224.0,225.0,13.68,16.34,,47.59359,-54.27349
2018-01-28 09:20:00+00:00,224.0,232.0,14.02,16.56,,47.59359,-54.27349
2018-01-28 09:30:00+00:00,229.0,229.0,14.32,16.83,,47.59359,-54.27349
2018-01-28 09:40:00+00:00,228.0,232.0,14.01,16.83,,47.59359,-54.27349
2018-01-28 09:50:00+00:00,227.0,229.0,13.35,15.38,,47.59359,-54.27349
2018-01-28 10:00:00+00:00,225.0,228.0,13.06,15.66,,47.59359,-54.27349
2018-01-28 10:10:00+00:00,228.0,232.0,14.05,15.86,,47.59359,-54.27349
2018-01-28 10:20:00+00:00,226.0,224.0,14.05,15.98,,47.59359,-54.27349
2018-01-28 10:30:00+00:00,227.0,226.0,13.88,17.57,,47.59359,-54.27349
2018-01-28 10:40:00+00:00,228.0,230.0,15.21,17.58,,47.59359,-54.27349
2018-01-28 10:50:00+00:00,231.0,229.0,12.46,15.48,,47.59359,-54.27349
2018-01-28 11:00:00+00:00,228.0,230.0,14.07,17.23,,47.59359,-54.27349
2018-01-28 11:10:00+00:00,228.0,226.0,13.23,15.04,,47.59359,-54.27349
2018-01-28 11:20:00+00:00,228.0,234.0,14.88,17.68,,47.59359,-54.27349
2018-01-28 11:30:00+00:00,231.0,230.0,13.59,16.77,,47.59359,-54.27349
2018-01-28 11:40:00+00:00,230.0,232.0,14.93,17.75,,47.59359,-54.27349
2018-01-28 11:50:00+00:00,229.0,234.0,15.26,18.49,,47.59359,-54.27349
2018-01-28 12:00:00+00:00,229.0,234.0,15.58,17.69,,47.59359,-54.27349
2018-01-28 12:10:00+00:00,230.0,231.0,14.84,18.01,,47.59359,-54.27349
2018-01-28 12:20:00+00:00,228.0,232.0,14.64,16.91,,47.59359,-54.27349
2018-01-28 12:30:00+00:00,229.0,226.0,15.5,19.29,,47.59359,-54.27349
2018-01-28 12:40:00+00:00,226.0,223.0,14.8,17.34,,47.59359,-54.27349
2018-01-28 12:50:00+00:00,227.0,227.0,14.83,16.34,,47.59359,-54.27349
2018-01-28 13:00:00+00:00,228.0,232.0,15.16,17.69,,47.59359,-54.27349
2018-01-28 13:10:00+00:00,229.0,229.0,13.7,15.78,,47.59359,-54.27349
2018-01-28 13:20:00+00:00,232.0,240.0,12.99,15.2,,47.59359,-54.27349
2018-01-28 13:30:00+00:00,234.0,233.0,12.01,14.88,,47.59359,-54.27349
2018-01-28 13:40:00+00:00,239.0,241.0,13.89,17.39,,47.59359,-54.27349
2018-01-28 13:50:00+00:00,239.0,243.0,14.08,17.28,,47.59359,-54.27349
2018-01-28 14:00:00+00:00,238.0,239.0,13.31,14.86,,47.59359,-54.27349
2018-01-28 14:10:00+00:00,232.0,231.0,12.45,15.42,,47.59359,-54.27349
2018-01-28 14:20:00+00:00,229.0,230.0,14.04,16.2,,47.59359,-54.27349
2018-01-28 14:30:00+00:00,229.0,230.0,12.7,15.23,,47.59359,-54.27349
2018-01-28 14:40:00+00:00,240.0,239.0,12.99,15.49,,47.59359,-54.27349
2018-01-28 14:50:00+00:00,242.0,241.0,14.01,16.69,,47.59359,-54.27349
2018-01-28 15:00:00+00:00,243.0,249.0,13.48,16.15,,47.59359,-54.27349
2018-01-28 15:10:00+00:00,241.0,244.0,12.48,15.12,,47.59359,-54.27349
2018-01-28 15:20:00+00:00,243.0,246.0,12.89,14.64,,47.59359,-54.27349
2018-01-28 15:30:00+00:00,246.0,252.0,12.02,14.13,,47.59359,-54.27349
2018-01-28 15:40:00+00:00,245.0,247.0,13.26,16.09,,47.59359,-54.27349
2018-01-28 15:50:00+00:00,246.0,252.0,13.0,16.54,,47.59359,-54.27349
2018-01-28 16:00:00+00:00,248.0,251.0,13.02,15.62,,47.59359,-54.27349
2018-01-28 16:10:00+00:00,248.0,245.0,12.94,15.41,,47.59359,-54.27349
2018-01-28 16:20:00+00:00,250.0,250.0,12.88,14.48,,47.59359,-54.27349
2018-01-28 16:30:00+00:00,248.0,252.0,11.04,12.73,,47.59359,-54.27349
2018-01-28 16:40:00+00:00,249.0,250.0,10.78,12.37,,47.59359,-54.27349
2018-01-28 16:50:00+00:00,244.0,255.0,10.34,11.94,,47.59359,-54.27349
2018-01-28 17:00:00+00:00,245.0,239.0,10.2,11.71,,47.59359,-54.27349
2018-01-28 17:10:00+00:00,243.0,252.0,9.63,10.66,,47.59359,-54.27349
2018-01-28 17:20:00+00:00,244.0,249.0,8.16,9.52,,47.59359,-54.27349
2018-01-28 17:30:00+00:00,241.0,240.0,8.29,9.57,,47.59359,-54.27349
2018-01-28 17:40:00+00:00,242.0,242.0,9.3,11.07,,47.59359,-54.27349
2018-01-28 17:50:00+00:00,239.0,239.0,9.0,10.53,,47.59359,-54.27349
2018-01-28 18:00:00+00:00,236.0,237.0,8.55,10.49,,47.59359,-54.27349
2018-01-28 18:10:00+00:00,228.0,229.0,7.68,8.56,,47.59359,-54.27349
2018-01-28 18:20:00+00:00,226.0,225.0,9.24,10.03,,47.59359,-54.27349
2018-01-28 18:30:00+00:00,223.0,223.0,10.61,11.9,,47.59359,-54.27349
2018-01-28 18:40:00+00:00,227.0,226.0,11.45,13.69,,47.59359,-54.27349
2018-01-28 18:50:00+00:00,231.0,233.0,10.49,12.09,,47.59359,-54.27349
2018-01-28 19:00:00+00:00,229.0,231.0,10.05,11.36,,47.59359,-54.27349
2018-01-28 19:10:00+00:00,230.0,228.0,8.82,10.12,,47.59359,-54.27349
2018-01-28 19:20:00+00:00,230.0,232.0,7.23,8.52,,47.59359,-54.27349
2018-01-28 19:30:00+00:00,229.0,227.0,6.96,7.87,,47.59359,-54.27349
2018-01-28 19:40:00+00:00,231.0,233.0,8.56,9.84,,47.59359,-54.27349
2018-01-28 19:50:00+00:00,229.0,226.0,9.61,10.91,,47.59359,-54.27349
2018-01-28 20:00:00+00:00,230.0,232.0,9.92,10.9,,47.59359,-54.27349
2018-01-28 20:10:00+00:00,229.0,229.0,9.33,10.65,,47.59359,-54.27349
2018-01-28 20:20:00+00:00,230.0,231.0,10.36,11.67,,47.59359,-54.27349
2018-01-28 20:30:00+00:00,229.0,232.0,10.51,11.93,,47.59359,-54.27349
2018-01-28 20:40:00+00:00,231.0,233.0,10.43,11.87,,47.59359,-54.27349
2018-01-28 20:50:00+00:00,232.0,234.0,10.08,11.41,,47.59359,-54.27349
2018-01-28 21:00:00+00:00,231.0,232.0,9.28,10.48,,47.59359,-54.27349
2018-01-28 21:10:00+00:00,234.0,233.0,8.2,9.43,,47.59359,-54.27349
2018-01-28 21:20:00+00:00,232.0,234.0,8.0,10.38,,47.59359,-54.27349
2018-01-28 21:30:00+00:00,240.0,242.0,7.3,9.24,,47.59359,-54.27349
2018-01-28 21:40:00+00:00,239.0,242.0,8.2,9.62,,47.59359,-54.27349
2018-01-28 21:50:00+00:00,237.0,237.0,7.64,8.68,,47.59359,-54.27349
2018-01-28 22:00:00+00:00,236.0,233.0,7.81,9.2,,47.59359,-54.27349
2018-01-28 22:10:00+00:00,227.0,226.0,7.05,7.78,,47.59359,-54.27349
2018-01-28 22:20:00+00:00,224.0,227.0,6.95,7.86,,47.59359,-54.27349
2018-01-28 22:30:00+00:00,233.0,235.0,5.6,6.62,,47.59359,-54.27349
2018-01-28 22:40:00+00:00,229.0,226.0,5.54,6.53,,47.59359,-54.27349
2018-01-28 22:50:00+00:00,230.0,220.0,5.21,6.03,,47.59359,-54.27349
2018-01-28 23:00:00+00:00,220.0,221.0,6.86,7.56,,47.59359,-54.27349
2018-01-28 23:10:00+00:00,222.0,228.0,7.7,8.45,,47.59359,-54.27349
2018-01-28 23:20:00+00:00,229.0,231.0,7.86,8.59,,47.59359,-54.27349
2018-01-28 23:30:00+00:00,227.0,229.0,7.6,8.38,,47.59359,-54.27349
2018-01-28 23:40:00+00:00,232.0,232.0,7.09,8.15,,47.59359,-54.27349
2018-01-28 23:50:00+00:00,231.0,235.0,6.63,7.38,,47.59359,-54.27349
